Regional Weather Roundup
Issued by NWS

Home | Current Version | Previous Version | Graphics & Text | Print | Product List | Glossary On
Versions: 1 2 3 4 5 6 7 8 9 10 11 12 13 14 15 16 17 18 19 20 21 22 23 24 25 26 27
000
ASUS45 KGTF 251310
RWRMT
MONTANA HOURLY WEATHER ROUNDUP
NATIONAL WEATHER SERVICE GREAT FALLS MT
700 AM MDT SAT APR 25 2015

NOTE: "FAIR" INDICATES FEW OR NO CLOUDS BELOW 12000 FEET WITH NO
SIGNIFICANT WEATHER AND/OR OBSTRUCTIONS TO VISIBILITY.

MTZ001>007-043-251400-
WEST OF THE DIVIDE

CITY           SKY/WX    TMP DP  RH WIND       PRES   REMARKS
KALISPELL      CLOUDY    29  26  89 CALM      29.82S
MISSOULA       MOCLDY    30  24  78 CALM      29.85R
BUTTE          CLOUDY    32  28  85 CALM      29.79R
DEER LODGE       N/A     34  25  69 CALM      29.84R
EUREKA           N/A     34  25  69 CALM      29.84S
HAMILTON         N/A     30  25  80 S2          N/A
LIBBY            N/A     27  25  93 CALM      29.86R
$$

MTZ008-052>055-251400-
SOUTHWEST MONTANA

CITY           SKY/WX    TMP DP  RH WIND       PRES   REMARKS
BOZEMAN        LGT SNOW  33  32  96 W8        29.81R FOG     WCI  26
DILLON         CLOUDY    33  30  88 E5        29.77S
$$

MTZ009-010-012-014-046-048-049-054-251400-
EAST SLOPES AND CENTRAL MONTANA

CITY           SKY/WX    TMP DP  RH WIND       PRES   REMARKS
CUT BANK       CLOUDY    32  20  61 N12       29.78R WCI  23
GREAT FALLS    CLOUDY    37  34  89 SW13      29.77S WCI  29
MALMSTROM AFB  CLOUDY    38  36  94 SW13      29.78  WCI  30
HELENA         CLOUDY    41  31  67 SE6       29.78S
$$

MTZ011-013-016-021-045-047-050-051-251400-
NORTH CENTRAL MONTANA

CITY           SKY/WX    TMP DP  RH WIND       PRES   REMARKS
HAVRE          CLOUDY    43  30  60 NW7       29.74R
LEWISTOWN      MIX PCPN  35  33  92 SW10      29.77R WCI  27
CHINOOK          N/A     45  28  53 W5        29.74R
FORT BENTON      N/A     43  34  70 SW10      29.79R
$$

MTZ017>020-022>042-056>058-061-062-251400-
EASTERN PLAINS

CITY           SKY/WX    TMP DP  RH WIND       PRES   REMARKS
BAKER          MOSUNNY   41  39  93 SE12      29.68S
BILLINGS       LGT RAIN  40  37  89 NW10      29.72R
GLASGOW        CLOUDY    48  38  68 NW20      29.63R
JORDAN           N/A     45  39  79 NW14      29.67R
LIVINGSTON     MIX PCPN  36  32  85 W14       29.76R WCI  27
MILES CITY     PTCLDY    47  38  71 SE7       29.62R
SIDNEY         PTSUNNY   48  39  71 E9        29.71R
WOLF POINT     CLOUDY    49  39  68 E9        29.64S
BIG TIMBER       N/A     36  34  93 SW16      29.76R WCI  26
FORSYTH          N/A     46  43  87 W8        29.65R
PLENTYWOOD       N/A     45  41  87 E16       29.70S
POPLAR           N/A     52  43  71 SE13G18   29.67R
$$

REGIONAL REPORTS...DAKOTAS

CITY           SKY/WX    TMP DP  RH WIND       PRES   REMARKS
WILLISTON      CLOUDY    46  41  82 SE12      29.73S
MINOT          CLOUDY    38  36  92 CALM      29.81R FOG
DICKINSON      FOG       42  40  92 SE15      29.71R VSB 1/4
BEACH          FOG       41  41 100 SE18G24   29.70R VSB 1/4
CROSBY         CLOUDY    45  45 100 SE14      29.76S FOG
WATFORD CITY   CLOUDY    43  41  93 SE9       29.72S
BISMARCK       CLOUDY    44  41  89 E14       29.78R
GRAND FORKS    CLOUDY    44  32  62 E10       29.87R
FARGO          CLOUDY    44  37  76 E7        29.84S
BUFFALO SD       N/A     42  41  96 SE8       29.64R
RAPID CITY     CLOUDY    42  41  96 NE3       29.70S FOG
$$

REGIONAL REPORTS...WYOMING/IDAHO/WASHINGTON

CITY           SKY/WX    TMP DP  RH WIND       PRES   REMARKS
GILLETTE       PTCLDY    46  39  76 SE6       29.63S
SHERIDAN       CLOUDY    44  41  89 NW18      29.67R
BUFFALO WY     CLOUDY    43  40  89 NW15      29.65R
CODY           CLOUDY    37  36  93 N13G20    29.70R WCI  29
YELLOWSTONE LA   N/A     29  26  89 CALM      29.77S
IDAHO FALLS    CLOUDY    40  32  73 SW13      29.80R
SALMON         MOCLDY    30  27  86 CALM      29.81R
BOISE          CLOUDY    42  34  73 CALM      29.80S
SPOKANE        MOCLDY    36  30  79 S8        29.82R WCI  30
$$

REGIONAL REPORTS...ALBERTA

CITY           SKY/WX    TMP DP  RH WIND       PRES   REMARKS
EDMONTON       CLOUDY    32  23  69 NE10      29.91R WCI  24
CALGARY        MOCLDY    34  30  86 N6        29.81S WCI  29
LETHBRIDGE     CLOUDY    34  32  93 W8        29.81R WCI  27
MEDICINE HAT   CLOUDY    41  37  87 W12       29.74S
$$

REGIONAL REPORTS...SASKATCHEWAN

CITY           SKY/WX    TMP DP  RH WIND       PRES   REMARKS
SWIFT CURRENT  LGT RAIN  36  34  93 NE6       29.73R WCI  31
REGINA         LGT RAIN  45  43  93 E20       29.74R FOG
SASKATOON      CLOUDY    28  25  86 NE17G30   29.88R WCI  16
$$



USA.gov is the U.S. government's official web portal to all federal, state and local government web resources and services.